Wind_Speed
33 33 33 33 33 33 33 33 33 33 33 33 33 32 32 31 31 30 29 29 29 28 28 28 28 28 27 26 26 25 25 24 24 24 23 23 22 22 22 22 22 22 22
35 35 35 35 35 35 35 35 35 35 35 35 35 35 35 34 33 32 31 31 30 30 29 29 29 29 28 28 28 27 27 27 26 25 25 25 24 24 23 23 23 23 24
37 37 37 37 37 37 37 37 37 37 37 37 36 37 37 37 36 34 34 33 32 31 30 29 30 30 30 29 29 29 29 28 28 27 27 27 26 25 25 25 25 25 25
40 40 39 39 40 39 39 39 38 39 39 39 38 38 38 39 38 37 37 36 35 34 32 32 31 31 31 31 30 30 30 30 29 29 28 28 28 28 27 27 27 27 27
43 42 42 41 41 40 40 41 41 40 40 40 40 40 40 39 39 39 39 38 37 36 35 34 34 33 32 32 31 31 31 30 30 30 30 29 29 30 30 29 29 29 29
44 44 44 43 43 42 42 42 42 42 42 42 42 42 42 41 40 40 40 39 39 38 37 36 36 35 34 33 32 32 32 32 32 31 31 31 31 31 31 31 31 30 30
46 45 45 44 44 44 44 43 44 43 43 43 44 43 43 43 42 42 42 41 41 40 39 38 38 37 36 35 35 34 33 33 33 32 33 32 32 32 31 31 32 32 32
49 48 48 47 46 46 45 46 45 45 45 44 44 45 45 45 44 44 44 43 42 42 42 40 39 39 38 37 37 36 36 35 35 35 34 33 33 33 32 32 32 33 33
51 51 51 51 50 49 48 47 46 47 47 46 46 46 46 46 46 46 45 45 45 44 43 42 42 41 40 39 39 38 38 37 37 36 36 35 34 34 34 34 34 34 33
53 53 53 52 52 51 50 50 49 48 48 47 46 47 47 47 47 47 47 47 47 46 45 44 43 42 42 42 41 40 39 38 37 37 37 37 36 35 35 35 34 34 34
55 54 54 54 53 53 52 51 51 50 49 48 48 47 47 47 47 48 47 47 47 47 47 46 45 44 44 43 42 41 41 39 38 38 38 38 37 36 36 36 36 35 35
56 55 56 55 54 54 54 53 53 53 52 51 50 49 49 49 48 49 49 48 48 48 48 47 46 45 44 43 43 42 42 41 41 40 40 39 39 39 39 39 38 37 37
56 56 56 56 56 56 56 55 55 55 54 53 52 51 51 50 50 50 50 50 50 49 49 49 48 47 46 46 44 43 43 42 42 42 42 42 42 41 41 41 40 40 39
56 56 57 57 57 57 57 57 57 56 56 55 54 53 53 52 52 52 51 52 52 51 50 50 49 48 48 47 46 45 44 44 44 44 44 44 44 43 43 42 42 42 42
56 57 57 58 57 57 58 58 57 57 57 56 55 55 54 54 54 54 53 53 53 53 52 51 51 50 49 48 47 47 46 45 45 45 45 45 45 45 45 45 45 45 45
55 55 54 55 57 57 58 57 57 58 57 56 56 56 56 55 55 55 54 54 53 53 53 52 52 52 51 50 49 49 48 48 47 47 46 45 45 46 46 46 46 46 46
57 56 55 54 55 56 57 57 57 57 57 56 56 57 56 56 56 56 55 55 54 54 53 53 53 53 53 52 51 51 50 49 48 48 47 47 47 46 47 47 47 46 46
55 55 56 56 55 55 56 57 57 57 56 56 56 56 56 56 56 56 56 56 55 55 54 53 54 53 53 53 53 52 52 51 50 49 48 48 48 48 47 47 47 46 46
55 55 55 55 54 54 54 55 56 56 56 56 55 55 55 55 55 55 56 56 56 56 56 55 55 54 54 54 54 53 53 52 51 50 49 49 49 48 48 48 48 48 47
53 54 53 53 54 54 53 53 54 54 54 54 54 54 54 53 53 53 54 55 56 56 56 56 56 55 54 54 54 53 53 52 52 51 50 50 50 49 49 49 49 48 48
52 51 51 51 52 53 52 51 52 53 53 52 52 53 53 53 53 54 54 54 56 56 56 56 56 56 55 54 54 53 53 53 52 52 52 52 52 51 51 50 49 48 48
50 49 49 49 50 51 51 51 50 51 51 52 52 51 52 53 53 53 54 54 55 55 55 55 55 55 54 54 53 53 53 53 53 53 53 52 52 52 50 50 49 49 49
47 47 47 47 47 49 50 50 50 50 49 50 51 51 51 51 52 52 53 54 54 54 54 54 54 55 55 54 54 53 53 53 53 53 53 52 52 51 51 50 50 50 50
46 45 45 45 46 46 48 49 49 49 49 50 50 51 51 50 50 51 52 53 53 53 53 53 54 54 54 53 53 53 53 54 54 54 53 52 52 51 51 50 51 51 51
44 44 44 44 45 46 47 47 48 49 49 49 49 50 50 49 49 50 50 50 51 52 53 53 53 53 53 53 53 53 52 53 53 53 52 52 51 51 50 50 50 51 51
43 43 43 43 44 44 45 45 46 47 47 47 47 47 48 49 49 49 49 49 48 49 50 51 52 52 52 52 52 52 52 52 51 51 50 50 50 51 50 50 50 50 50
Wind_Direction
252 252 252 252 252 251 251 250 249 248 248 249 249 250 250 250 250 249 250 250 251 252 252 251 250 251 252 253 254 255 257 257 257 259 262 264 264 265 266 266 267 268 268
252 252 252 253 252 251 251 250 249 249 249 249 250 250 250 250 250 249 249 249 249 249 250 250 250 250 251 252 254 255 257 257 258 259 261 263 265 265 267 268 268 269 269
253 253 253 253 253 252 252 251 251 250 250 250 250 250 250 249 249 250 249 250 249 248 249 249 250 251 252 252 254 254 256 258 259 259 261 263 264 266 266 267 269 269 269
254 254 254 255 255 254 254 253 253 252 251 250 250 250 250 250 249 250 250 250 250 249 249 249 250 251 252 253 254 255 256 258 259 260 261 262 264 265 266 268 269 269 269
254 254 254 255 254 254 255 255 254 253 252 251 251 251 250 250 250 249 250 250 249 249 249 249 250 250 251 252 253 255 256 258 259 261 262 263 264 265 266 267 269 269 269
255 254 255 255 254 253 254 255 254 253 253 252 251 251 250 249 249 249 249 249 249 249 249 249 250 250 250 251 252 254 255 257 259 261 262 263 264 265 266 267 268 268 268
254 255 255 255 255 253 253 254 254 253 254 253 252 251 250 250 250 250 249 249 248 248 248 249 249 249 250 250 252 253 254 256 258 260 262 263 264 266 268 267 267 268 268
255 255 256 256 255 254 254 255 255 254 254 254 254 252 251 250 250 250 250 250 249 249 249 249 249 250 250 251 252 253 254 255 258 260 261 262 264 266 268 269 268 268 268
255 255 256 256 257 256 255 255 255 255 254 253 253 253 252 251 250 250 250 250 250 250 250 250 249 250 251 252 252 253 255 256 258 259 260 261 263 265 267 268 269 269 270
255 255 256 256 256 256 256 255 255 254 254 253 252 253 253 252 251 250 249 249 250 250 250 250 250 250 251 253 253 254 256 257 258 259 260 261 263 265 266 267 268 269 270
256 256 256 256 257 257 255 255 254 254 253 253 253 252 252 252 252 251 250 250 249 250 250 251 251 250 251 252 253 254 255 256 257 259 260 261 261 263 264 266 267 267 269
256 256 256 257 257 257 256 255 254 254 253 253 253 252 251 251 251 251 251 250 249 249 250 250 251 251 251 252 253 254 255 255 256 257 259 260 261 262 263 264 265 265 267
256 256 256 256 256 256 255 255 254 254 254 253 253 253 252 252 252 251 251 250 249 249 250 250 251 251 252 252 253 254 254 255 256 257 259 260 261 262 263 264 264 265 266
256 257 256 256 256 255 254 254 254 254 254 254 253 253 252 252 252 252 251 250 250 249 249 249 250 251 251 252 252 253 254 255 256 257 259 260 261 261 263 264 265 266 267
256 257 256 256 256 255 254 253 253 253 253 254 253 252 252 251 252 251 251 251 250 249 248 248 248 249 250 251 252 253 253 255 256 258 260 261 262 264 264 265 266 266 267
256 256 255 255 255 254 254 253 252 252 252 252 252 252 251 251 252 251 251 250 250 250 249 248 248 249 250 251 252 253 253 255 257 258 260 261 263 264 265 266 266 267 267
256 255 254 255 254 254 252 252 252 251 251 251 251 251 250 250 250 249 250 250 250 250 250 249 249 249 249 250 252 252 253 255 256 257 259 261 262 264 265 266 266 267 268
257 257 255 254 254 253 252 251 251 251 251 250 250 250 250 250 249 249 249 249 249 249 249 250 249 249 249 250 251 252 254 255 256 257 258 260 262 264 265 266 266 267 267
257 258 256 254 252 252 251 251 250 250 250 250 249 249 249 249 249 249 248 248 248 248 249 249 249 249 249 250 251 252 253 254 256 257 259 260 262 264 265 266 267 267 267
257 257 256 254 252 251 251 250 250 250 249 249 249 249 249 248 248 248 248 248 248 248 249 249 249 249 250 251 251 252 253 254 256 257 258 260 262 264 265 266 267 267 267
259 258 256 254 252 250 250 250 249 248 249 249 248 248 248 247 248 248 248 248 248 248 249 249 249 250 251 251 252 252 253 254 255 257 259 261 262 264 265 265 265 266 266
259 257 256 255 253 250 249 249 248 248 248 247 247 248 248 247 247 248 249 248 248 248 248 249 249 250 251 251 252 252 253 254 256 257 259 260 262 264 264 264 265 266 266
258 256 256 255 254 252 250 250 250 249 248 247 247 247 247 247 247 248 248 248 248 248 248 249 249 250 250 251 251 252 252 254 256 257 258 260 262 263 263 264 265 266 267
257 257 256 255 254 252 251 251 250 249 249 249 248 248 248 247 247 248 248 248 248 247 247 249 250 251 251 251 251 252 253 253 255 257 258 260 261 262 263 264 265 266 267
258 257 256 255 254 253 252 252 251 249 249 249 249 248 247 247 247 248 248 248 248 248 248 248 250 250 250 251 252 252 253 254 255 256 258 259 260 262 263 264 265 266 266
258 258 256 255 253 252 251 251 250 249 249 248 248 247 246 246 246 247 248 248 248 248 248 248 249 249 249 250 251 252 253 255 256 257 257 259 260 261 263 264 265 265 266
Height
5794 5795 5796 5797 5798 5799 5800 5801 5803 5804 5805 5806 5808 5809 5810 5812 5813 5814 5816 5817 5818 5819 5820 5821 5823 5824 5825 5826 5827 5828 5829 5829 5830 5831 5831 5831 5831 5832 5832 5832 5832 5833 5832
5786 5787 5788 5789 5790 5791 5792 5793 5795 5796 5797 5799 5800 5802 5803 5805 5806 5807 5809 5810 5811 5812 5814 5815 5817 5818 5819 5820 5821 5822 5823 5824 5825 5825 5826 5826 5827 5827 5827 5827 5827 5827 5827
5777 5778 5779 5780 5781 5782 5783 5785 5786 5788 5789 5791 5792 5794 5795 5797 5798 5800 5801 5803 5804 5806 5807 5809 5810 5811 5813 5814 5815 5816 5817 5818 5819 5819 5820 5821 5821 5822 5822 5822 5822 5822 5822
5768 5768 5770 5771 5772 5773 5774 5776 5777 5779 5780 5782 5784 5785 5787 5788 5790 5792 5793 5795 5797 5798 5800 5802 5803 5805 5806 5807 5808 5810 5811 5812 5813 5813 5814 5815 5815 5816 5816 5816 5817 5817 5817
5757 5758 5760 5761 5762 5763 5765 5766 5768 5769 5771 5773 5774 5776 5778 5779 5781 5783 5785 5787 5789 5791 5792 5794 5796 5798 5799 5801 5802 5803 5804 5805 5806 5807 5807 5808 5809 5809 5810 5810 5810 5810 5810
5746 5747 5749 5750 5752 5753 5755 5756 5758 5759 5761 5762 5764 5766 5768 5770 5772 5774 5776 5778 5780 5782 5784 5786 5788 5790 5792 5793 5795 5796 5797 5798 5799 5800 5801 5801 5802 5802 5803 5803 5804 5804 5804
5734 5736 5737 5739 5740 5742 5744 5745 5747 5749 5750 5752 5754 5756 5758 5760 5762 5764 5766 5769 5771 5773 5775 5778 5780 5782 5784 5785 5787 5788 5790 5791 5792 5792 5793 5794 5795 5795 5796 5796 5797 5797 5797
5722 5724 5726 5727 5728 5730 5732 5733 5735 5737 5739 5741 5743 5745 5747 5750 5752 5754 5756 5759 5761 5763 5766 5768 5771 5773 5775 5776 5778 5780 5781 5783 5784 5785 5786 5787 5787 5788 5788 5789 5789 5789 5789
5710 5711 5713 5714 5716 5718 5720 5721 5723 5725 5727 5729 5730 5733 5735 5738 5741 5744 5746 5748 5751 5753 5756 5759 5761 5763 5765 5767 5769 5771 5773 5774 5776 5777 5778 5779 5780 5780 5781 5781 5782 5782 5782
5696 5698 5700 5701 5703 5705 5707 5709 5710 5712 5714 5716 5718 5720 5723 5725 5728 5732 5735 5737 5740 5743 5745 5748 5751 5753 5756 5758 5760 5762 5764 5766 5767 5768 5769 5770 5772 5772 5773 5773 5774 5774 5774
5681 5683 5685 5687 5689 5691 5693 5695 5697 5699 5701 5703 5706 5708 5710 5713 5715 5719 5723 5726 5729 5731 5734 5737 5740 5743 5746 5748 5750 5753 5755 5757 5758 5759 5760 5762 5763 5764 5764 5765 5765 5765 5765
5666 5668 5671 5673 5675 5677 5679 5681 5683 5685 5688 5690 5693 5696 5698 5701 5704 5706 5710 5713 5717 5720 5723 5726 5729 5732 5735 5737 5740 5742 5745 5747 5748 5750 5751 5752 5754 5755 5755 5756 5756 5757 5757
5651 5653 5655 5658 5660 5662 5664 5667 5669 5672 5674 5677 5680 5683 5686 5688 5691 5694 5697 5700 5704 5708 5711 5714 5717 5720 5723 5726 5729 5731 5734 5736 5738 5740 5741 5743 5744 5745 5746 5746 5747 5747 5747
5636 5638 5640 5642 5644 5646 5649 5651 5654 5657 5660 5663 5666 5669 5672 5675 5678 5681 5684 5687 5690 5695 5699 5702 5705 5708 5711 5714 5718 5720 5723 5725 5727 5729 5731 5732 5733 5735 5736 5736 5737 5737 5737
5620 5622 5624 5626 5628 5630 5633 5636 5639 5642 5645 5648 5651 5654 5658 5661 5664 5667 5671 5674 5677 5681 5686 5689 5693 5696 5699 5702 5706 5708 5711 5714 5716 5718 5719 5721 5722 5724 5724 5725 5726 5726 5727
5604 5606 5608 5610 5612 5614 5617 5620 5623 5626 5629 5633 5636 5639 5643 5646 5650 5653 5657 5660 5663 5667 5672 5677 5680 5683 5686 5690 5693 5696 5699 5702 5704 5706 5708 5710 5711 5712 5713 5714 5714 5715 5715
5588 5590 5592 5594 5596 5599 5601 5604 5607 5610 5614 5617 5620 5624 5628 5631 5635 5639 5643 5646 5650 5653 5658 5663 5666 5670 5674 5677 5680 5683 5686 5689 5692 5694 5696 5698 5699 5700 5701 5702 5703 5703 5704
5572 5573 5576 5578 5580 5583 5585 5588 5592 5595 5598 5601 5605 5608 5612 5616 5620 5624 5628 5632 5636 5640 5644 5648 5652 5656 5660 5664 5667 5670 5673 5676 5679 5681 5683 5685 5687 5688 5689 5690 5690 5691 5692
5556 5558 5560 5562 5565 5567 5570 5573 5576 5579 5582 5586 5589 5593 5597 5601 5605 5609 5613 5617 5621 5626 5630 5634 5638 5642 5646 5650 5653 5657 5660 5663 5666 5668 5670 5672 5674 5675 5676 5677 5678 5679 5679
5540 5542 5544 5547 5549 5552 5555 5558 5561 5564 5568 5571 5575 5579 5583 5587 5591 5595 5599 5603 5607 5611 5615 5619 5624 5628 5632 5636 5639 5643 5646 5649 5653 5655 5657 5659 5661 5662 5664 5665 5666 5666 5666
5525 5527 5529 5532 5534 5537 5540 5543 5546 5550 5553 5557 5561 5565 5569 5573 5577 5581 5585 5589 5592 5596 5600 5605 5609 5614 5618 5621 5625 5629 5632 5636 5639 5641 5644 5646 5648 5649 5650 5651 5652 5652 5653
5511 5512 5514 5517 5519 5523 5526 5529 5532 5536 5540 5544 5548 5551 5555 5559 5563 5566 5570 5574 5578 5582 5586 5590 5595 5599 5604 5608 5611 5614 5618 5622 5626 5629 5630 5632 5633 5635 5636 5637 5638 5639 5640
5496 5498 5500 5503 5506 5509 5512 5515 5518 5522 5526 5530 5534 5537 5541 5545 5549 5552 5556 5559 5564 5568 5572 5576 5581 5585 5589 5594 5598 5601 5604 5607 5611 5614 5615 5618 5619 5621 5622 5623 5624 5625 5626
5483 5485 5487 5489 5493 5496 5498 5501 5504 5507 5511 5515 5520 5523 5527 5531 5535 5538 5542 5545 5549 5554 5558 5562 5567 5572 5575 5578 5582 5586 5589 5593 5596 5598 5601 5604 5605 5607 5608 5609 5610 5610 5611
5470 5472 5474 5476 5479 5482 5485 5488 5491 5494 5498 5502 5506 5509 5513 5517 5521 5525 5528 5532 5536 5540 5543 5547 5552 5556 5560 5564 5568 5571 5574 5578 5581 5584 5586 5589 5591 5593 5594 5595 5595 5596 5597
5457 5459 5461 5463 5466 5469 5472 5475 5478 5481 5485 5489 5493 5496 5500 5504 5507 5510 5514 5518 5522 5526 5530 5533 5537 5541 5545 5549 5553 5556 5560 5563 5567 5570 5572 5575 5577 5578 5580 5581 5581 5582 5582